GW5891 Weather Reports


time (UTC)temp
F
wind
direction
speed
knots
gust
knots
rain 1hr
in
rain 24hr
in
rain mn
in
humidity
%
barometer
mb
20260504215130 77 146 0.9 4.3 0.00 0.00 0.00 31 1013.3
20260504214626 77 10 0.9 3.5 0.00 0.00 0.00 31 1013.5
20260504214122 77 129 0.0 1.7 0.00 0.00 0.00 31 1013.4
20260504213619 77 100 1.7 2.6 0.00 0.00 0.00 31 1013.3
20260504213116 78 293 0.0 3.5 0.00 0.00 0.00 30 1013.4
20260504212612 78 256 1.7 2.6 0.00 0.00 0.00 31 1013.4
20260504212109 78 65 0.9 2.6 0.00 0.00 0.00 30 1013.3
20260504211606 78 177 1.7 1.7 0.00 0.00 0.00 30 1013.3
20260504211102 78 103 0.9 1.7 0.00 0.00 0.00 29 1013.4
20260504210600 78 133 1.7 3.5 0.00 0.00 0.00 29 1013.4
20260504210056 79 358 0.0 3.5 0.00 0.00 0.00 29 1013.4
20260504205554 79 235 0.0 3.5 0.00 0.00 0.00 29 1013.4
20260504205052 80 240 2.6 2.6 0.00 0.00 0.00 29 1013.6
20260504204550 80 78 1.7 2.6 0.00 0.00 0.00 31 1013.7
20260504204049 80 146 0.9 1.7 0.00 0.00 0.00 31 1013.5
20260504203546 80 163 0.9 2.6 0.00 0.00 0.00 29 1013.5
20260504203044 80 138 0.0 1.7 0.00 0.00 0.00 30 1013.7
20260504202539 79 355 1.7 1.7 0.00 0.00 0.00 30 1013.9
20260504202036 79 236 0.0 2.6 0.00 0.00 0.00 30 1013.8
20260504201533 78 83 1.7 2.6 0.00 0.00 0.00 30 1013.9
20260504201031 78 161 1.7 3.5 0.00 0.00 0.00 30 1013.9
20260504200527 79 105 0.0 3.5 0.00 0.00 0.00 30 1014.0
20260504200024 78 63 2.6 2.6 0.00 0.00 0.00 30 1013.8
20260504195520 78 166 0.9 1.7 0.00 0.00 0.00 30 1014.1
20260504195017 78 136 2.6 2.6 0.00 0.00 0.00 31 1014.4
20260504194513 78 147 1.7 1.7 0.00 0.00 0.00 31 1014.2
20260504194008 78 151 0.9 2.6 0.00 0.00 0.00 31 1014.2
20260504193506 78 30 0.9 2.6 0.00 0.00 0.00 30 1014.4
20260504193005 78 80 0.0 2.6 0.00 0.00 0.00 29 1014.5
20260504192502 77 142 0.9 1.7 0.00 0.00 0.00 31 1014.6
20260504192000 78 195 0.9 2.6 0.00 0.00 0.00 31 1014.6
20260504191458 78 105 1.7 2.6 0.00 0.00 0.00 31 1014.7
20260504190953 78 80 1.7 2.6 0.00 0.00 0.00 31 1014.8
20260504190449 78 111 0.0 0.9 0.00 0.00 0.00 32 1014.8
20260504185946 78 174 2.6 4.3 0.00 0.00 0.00 31 1015.0
20260504185443 77 142 0.9 1.7 0.00 0.00 0.00 32 1015.1
20260504184939 77 56 0.0 2.6 0.00 0.00 0.00 33 1015.0
20260504184435 77 27 0.9 3.5 0.00 0.00 0.00 34 1015.0
20260504183931 76 351 1.7 2.6 0.00 0.00 0.00 32 1015.2
20260504183428 77 143 1.7 2.6 0.00 0.00 0.00 32 1015.2
20260504182926 77 190 1.7 1.7 0.00 0.00 0.00 33 1015.5
20260504182423 77 343 1.7 2.6 0.00 0.00 0.00 34 1015.3
20260504181920 77 208 2.6 2.6 0.00 0.00 0.00 34 1015.6
20260504181417 76 148 0.0 1.7 0.00 0.00 0.00 34 1015.5
20260504180916 76 189 0.0 2.6 0.00 0.00 0.00 34 1015.6
20260504180414 76 261 0.9 1.7 0.00 0.00 0.00 32 1015.7
20260504175912 75 341 1.7 1.7 0.00 0.00 0.00 35 1015.6
20260504175409 75 171 0.9 2.6 0.00 0.00 0.00 35 1015.6
20260504174906 75 137 0.9 2.6 0.00 0.00 0.00 35 1015.6
20260504174404 75 131 0.9 2.6 0.00 0.00 0.00 35 1015.8
20260504173901 75 29 1.7 4.3 0.00 0.00 0.00 38 1015.7
20260504173357 74 152 0.0 3.5 0.00 0.00 0.00 36 1015.8
20260504172854 75 136 1.7 3.5 0.00 0.00 0.00 35 1015.9
20260504172351 75 189 1.7 1.7 0.00 0.00 0.00 36 1015.8
20260504171847 75 208 0.0 1.7 0.00 0.00 0.00 36 1015.9
20260504171344 75 6 0.9 2.6 0.00 0.00 0.00 34 1015.8
20260504170842 75 190 0.0 1.7 0.00 0.00 0.00 33 1015.8
20260504170338 75 182 0.0 3.5 0.00 0.00 0.00 33 1015.9
20260504160256 71 57 0.0 2.6 0.00 0.00 0.00 39 1017.0
20260504150722 64 340 0.0 1.7 0.00 0.00 0.00 46 1018.2
20260504150218 64 214 0.0 0.9 0.00 0.00 0.00 47 1018.1
20260504141148 58 348 0.9 3.5 0.00 0.00 0.00 51 1017.9
20260504140645 57 169 0.0 0.9 0.00 0.00 0.00 53 1017.8
20260504140140 57 129 0.0 0.0 0.00 0.00 0.00 61 1017.9
20260504130608 50 348 0.9 0.9 0.00 0.00 0.00 72 1017.8
20260504130105 49 158 0.0 0.9 0.00 0.00 0.00 73 1017.6
20260504110456 39 322 0.0 0.9 0.00 0.00 0.00 87 1017.2
20260504100418 41 261 0.9 1.7 0.00 0.00 0.00 84 1017.5
20260504081811 42 295 0.9 1.7 0.00 0.00 0.00 79 1017.1
20260504081308 42 309 1.7 1.7 0.00 0.00 0.00 79 1017.0
20260504080804 43 27 0.0 0.0 0.00 0.00 0.00 79 1017.0
20260504080301 43 323 0.9 1.7 0.00 0.00 0.00 79 1017.0
20260504070228 45 323 0.0 1.7 0.00 0.00 0.00 75 1016.7
20260504060149 46 331 1.7 1.7 0.00 0.00 0.00 72 1017.2
20260504050617 47 346 1.7 1.7 0.00 0.00 0.00 72 1017.4
20260504050114 47 323 0.9 1.7 0.00 0.00 0.00 72 1017.6
20260504045611 47 325 0.0 0.9 0.00 0.00 0.00 72 1017.4
20260504045106 47 32 0.0 0.9 0.00 0.00 0.00 71 1017.3
20260504044604 48 320 0.9 0.9 0.00 0.00 0.00 72 1017.1
20260504044100 48 21 0.0 0.9 0.00 0.00 0.00 69 1017.3
20260504043558 48 353 0.9 1.7 0.00 0.00 0.00 71 1017.1
20260504043055 48 312 1.7 1.7 0.00 0.00 0.00 71 1017.4
20260504042552 48 347 0.0 1.7 0.00 0.00 0.00 67 1017.2
20260504042049 48 344 0.9 2.6 0.00 0.00 0.00 68 1017.0
20260504041545 48 7 0.9 1.7 0.00 0.00 0.00 70 1017.2
20260504041041 48 348 0.0 0.9 0.00 0.00 0.00 69 1017.2
20260504040538 49 224 0.0 1.7 0.00 0.00 0.00 68 1017.0
20260504040035 49 340 1.7 1.7 0.00 0.00 0.00 67 1016.7
20260504035532 49 312 0.0 0.9 0.00 0.00 0.00 68 1017.0
20260504035028 49 338 0.9 1.7 0.00 0.00 0.00 66 1016.9
20260504034526 49 358 1.7 1.7 0.00 0.00 0.00 65 1016.9
20260504034023 49 322 0.0 0.9 0.00 0.00 0.00 66 1016.7
20260504033521 49 2 0.9 1.7 0.00 0.00 0.00 65 1016.9
20260504033018 49 44 0.0 1.7 0.00 0.00 0.00 67 1017.1
20260504032514 50 324 1.7 1.7 0.00 0.00 0.00 66 1017.1
20260504032011 50 340 0.0 0.9 0.00 0.00 0.00 67 1017.1
20260504031509 50 356 0.0 1.7 0.00 0.00 0.00 67 1017.2
20260504031005 50 16 0.0 0.9 0.00 0.00 0.00 66 1017.2
20260504030502 50 341 0.9 1.7 0.00 0.00 0.00 66 1017.2
20260504025958 50 330 1.7 1.7 0.00 0.00 0.00 65 1017.4
20260504025455 51 8 0.0 0.9 0.00 0.00 0.00 66 1017.1
20260504024952 51 309 0.0 0.9 0.00 0.00 0.00 65 1017.2
20260504024449 51 44 0.0 0.0 0.00 0.00 0.00 63 1017.2
20260504023946 51 332 1.7 1.7 0.00 0.00 0.00 63 1017.1
20260504023443 52 318 0.9 0.9 0.00 0.00 0.00 63 1017.2
20260504022938 52 24 0.0 0.9 0.00 0.00 0.00 64 1017.2
20260504022435 52 319 0.9 1.7 0.00 0.00 0.00 63 1016.9
20260504021931 53 29 0.9 0.9 0.00 0.00 0.00 62 1017.1
20260504021429 53 344 0.9 1.7 0.00 0.00 0.00 57 1017.2
20260504020926 53 334 1.7 1.7 0.00 0.00 0.00 58 1017.1
20260504020422 53 353 1.7 1.7 0.00 0.00 0.00 55 1016.9
20260504015919 53 344 0.0 1.7 0.00 0.00 0.00 57 1016.9
20260504015415 54 327 1.7 1.7 0.00 0.00 0.00 56 1016.6
20260504014911 54 31 1.7 2.6 0.00 0.00 0.00 54 1016.9
20260504014407 54 335 1.7 1.7 0.00 0.00 0.00 54 1016.6
20260504013904 54 323 0.9 1.7 0.00 0.00 0.00 55 1016.5
20260504013403 54 329 1.7 1.7 0.00 0.00 0.00 53 1016.2
20260504012859 55 325 1.7 1.7 0.00 0.00 0.00 52 1016.2
20260504012357 55 359 1.7 1.7 0.00 0.00 0.00 51 1016.0
20260504011854 55 0 1.7 1.7 0.00 0.00 0.00 51 1016.1
20260504011350 55 12 0.9 1.7 0.00 0.00 0.00 53 1016.1
20260504010846 55 345 1.7 1.7 0.00 0.00 0.00 53 1016.2
20260504010342 55 354 1.7 2.6 0.00 0.00 0.00 53 1016.2
20260504005839 55 340 1.7 2.6 0.00 0.00 0.00 53 1016.2
20260504005336 55 331 1.7 1.7 0.00 0.00 0.00 53 1016.1
20260504004833 55 327 0.9 1.7 0.00 0.00 0.00 54 1016.0
20260504004331 56 352 1.7 1.7 0.00 0.00 0.00 54 1016.2
20260504003827 56 347 0.0 0.9 0.00 0.00 0.00 54 1016.1
20260504003324 56 349 1.7 1.7 0.00 0.00 0.00 51 1016.0
20260504002821 57 339 1.7 1.7 0.00 0.00 0.00 50 1015.8
20260504002317 57 341 1.7 1.7 0.00 0.00 0.00 50 1015.6
20260504001815 58 324 0.0 1.7 0.00 0.00 0.00 51 1015.7
20260504001312 58 324 0.0 0.9 0.00 0.00 0.00 51 1015.5
20260504000809 59 323 1.7 1.7 0.00 0.00 0.00 51 1015.6
20260504000306 59 349 0.9 1.7 0.00 0.00 0.00 50 1015.5
20260503235804 60 330 1.7 1.7 0.00 0.00 0.00 49 1015.7
20260503235301 60 354 1.7 1.7 0.00 0.00 0.00 48 1015.4
20260503234758 60 344 1.7 1.7 0.00 0.00 0.00 48 1015.4
20260503234256 61 336 1.7 1.7 0.00 0.00 0.00 48 1015.3
20260503233754 61 349 0.9 1.7 0.00 0.00 0.00 49 1015.5
20260503233249 62 343 1.7 1.7 0.00 0.00 0.00 47 1015.4
20260503232746 62 359 1.7 1.7 0.00 0.00 0.00 45 1015.5
20260503232243 63 333 1.7 1.7 0.00 0.00 0.00 44 1015.3
20260503231741 64 308 1.7 1.7 0.00 0.00 0.00 43 1015.2
20260503231238 64 3 0.0 1.7 0.00 0.00 0.00 42 1015.4
20260503230734 65 326 1.7 1.7 0.00 0.00 0.00 41 1015.2
20260503230232 65 358 0.9 1.7 0.00 0.00 0.00 39 1015.3
20260503225729 66 357 0.9 1.7 0.00 0.00 0.00 39 1015.2
20260503225229 66 16 0.9 1.7 0.00 0.00 0.00 37 1015.3
20260503224726 66 3 0.0 0.9 0.00 0.00 0.00 35 1015.2
20260503224224 66 8 0.9 0.9 0.00 0.00 0.00 38 1015.2
20260503223721 66 324 0.0 1.7 0.00 0.00 0.00 35 1015.2
20260503223219 66 332 2.6 2.6 0.00 0.00 0.00 35 1015.4
20260503222715 66 138 0.0 0.9 0.00 0.00 0.00 33 1015.3
20260503222213 66 63 0.0 1.7 0.00 0.00 0.00 34 1015.4
20260503221711 67 248 0.0 1.7 0.00 0.00 0.00 35 1015.5
20260503221209 67 173 0.0 1.7 0.00 0.00 0.00 32 1015.5
20260503220705 67 180 0.0 0.9 0.00 0.00 0.00 32 1015.4
20260503220201 67 208 0.0 1.7 0.00 0.00 0.00 34 1015.4
20260503215658 67 185 0.0 0.9 0.00 0.00 0.00 32 1015.4